Showing default

IRIDIUM 142, 43256

Orbit data source: Space-Track

IRIDIUM 142, 43256 is a payload satellite owned by Iridium (US) in LEO that was launched on Fri, 30 Mar 2018 UTC via an FALCON 9 launch vehicle from the Air Force Western Test Range (AFWTR). Payloads include a variety of satellites, spacecraft, and rockets equipped with specific instruments for various scientific and technological missions. These include communications satellites like Starlink; space stations such as the ISS; scientific satellites like the Hubble; Earth observation satellites from companies like Planet Labs, Umbra, and HawkEye 360; GPS; miniature CubeSats for education and research; and military/defense satellites.

Loading next visibility...
IRIDIUM 142 details
Identifier
43256, 2018-030H
Orbit
LEO
Last TLE update9 hours ago
Origin
Flag of USIridium (US)
ManufacturerOATK SSG Gilbert
MissionOperational Commercial Communications
Bus & MotorELITEBUS, Unknown motor
Mass860 kg wet, 700 kg dry
Launch date (UTC)
2018-03-30 (7 years ago)
Launch vehicle
FALCON 9
Launch site
Air Force Western Test Range (AFWTR)
Object type
Payload
Rocket body
Debris
Shape & HBRTrap Box + 2 Pan, 9.4 m
Radar Cross Section14.423 m², Large (>1 m²)

Expand to show TLE details & history

TLE from 9 hours ago
0 IRIDIUM 142
1 43256U 18030H   24361.19480713 -.00000162  00000-0 -64775-4 0  9995
2 43256  86.3993 155.2652 0001889 106.9955 253.1448 14.34216511353025
Epoch: 2024-12-26T04:40Z
Definitive object data (Epoch: 2024-12-26T04:40:31.336Z)
Latitude0.00001°
Longitude-10.04306°
Altitude781.114 km
Speed7.463 km/s
True Right ascension10h 21m 03s
True Declination0° 00' 00"
Sunlit
Object was in full shadow at TLE epoch
Visualization TLE readout
Latitude77.6418°
Longitude153.20351°
Altitude789.535 km
Speed7.466 km/s
Apparent Right ascension00h 03m 57s
Apparent Declination26° 09' 39"
Sunlit
Object is in daylight
Visualization observer readout
Local Sidereal Time12:52:56
Azimuth11.93° NNE
Elevation-22.945°
Doppler factor1
Orbital elements
Apogee altitude775.987 km
Perigee altitude773.285 km
Semi-major axis7,152.773 km
Eccentricity0.0001889
Inclination86.3993°
RAAN155.2652°
Arg. of periapsis106.9955°
True anomaly253.12408°
Mean anomaly253.1448°
Eccentric anomaly253.13444°
Mean motion3.58783 °/min
BSTAR-0.000064775
Orbital period100.34 mins
Loading maneuver chart data...
Loading historical data...
Loading historical data...
Loading historical data...
Loading historical data...
Loading historical data...
Loading historical data...
Loading historical data...

IRIDIUM 142 Visibility forecast

Observer location: undefined°, undefined

Span
Click to sort rows by Start time (UTC) header in descending order
Start Az.
Max El. time (UTC)
Max El. Az.
Max El.
End time (UTC)
End Az.
8 mins2024-12-26 22:00:14.997Z20.542° NNE2024-12-26 22:04:14.997Z87.687° E30.644°2024-12-26 22:08:14.997Z145.758° SSE
6 mins2024-12-26 23:42:14.997Z313.19° NW2024-12-26 23:44:14.997Z282.546° WNW21.939°2024-12-26 23:48:14.997Z228.428° WSW
8 mins2024-12-27 10:56:14.997Z175.624° S2024-12-27 11:00:14.997Z57.648° ENE44.379°2024-12-27 11:04:14.997Z5.522° NNE
|